Regional Weather Roundup
Issued by NWS

Home | Current Version | Previous Version | Graphics & Text | Print | Product List | Glossary On
Versions: 1 2 3 4 5 6 7 8 9 10 11 12 13 14 15 16 17 18 19 20 21 22 23 24 25 26 27 28 29 30 31 32 33 34 35 36 37 38 39 40 41 42 43 44 45 46 47 48 49 50
000
ASUS43 KLMK 200510
RWRKY
KENTUCKY REGIONAL WEATHER ROUNDUP
NATIONAL WEATHER SERVICE LOUISVILLE KY
100 AM EDT SUN APR 20 2014

NOTE "FAIR" INDICATES FEW OR NO CLOUDS BELOW 12,000 FEET
WITH NO SIGNIFICANT WEATHER AND/OR OBSTRUCTIONS TO VISIBILITY.

KYZ001>023-026-027-061>063-070>075-200600-
WESTERN AND SOUTH CENTRAL KENTUCKY

CITY           SKY/WX    TMP DP  RH WIND       PRES   REMARKS
PADUCAH        PTCLDY    56  45  66 CALM      30.18R
HENDERSON      PTCLDY    52  45  76 CALM      30.19S
OWENSBORO      CLEAR     55  41  59 E5        30.20S
HOPKINSVILLE   CLEAR     55  39  54 E3        30.18S
BOWLING GREEN  CLEAR     52  39  61 CALM      30.20R
GLASGOW        CLEAR     55  36  48 NE3       30.19S
$$

KYZ024-025-028>034-038-045-046-053-200600-
NORTH CENTRAL KENTUCKY

CITY           SKY/WX    TMP DP  RH WIND       PRES   REMARKS
LOUISVILLE/SDF CLEAR     59  35  40 NE6       30.22R
LOUISVILLE/LOU CLEAR     62  35  36 NE7       30.22S
FORT KNOX      CLEAR     58  33  39 NE3       30.21R
$$

KYZ035>037-039>044-047>052-055>060-089>105-200600-
NORTHEAST KENTUCKY

CITY           SKY/WX    TMP DP  RH WIND       PRES   REMARKS
LEXINGTON      CLEAR     50  36  58 NE8       30.22R
COVINGTON      PTCLDY    52  35  52 NE7       30.25S
FRANKFORT      CLEAR     56  35  45 NE7       30.21F
$$

KYZ054-064>069-076>088-106>120-200600-
SOUTHEAST KENTUCKY

CITY           SKY/WX    TMP DP  RH WIND       PRES   REMARKS
JACKSON        MOCLDY    59  30  33 VRB3      30.21S
LONDON         CLEAR     59  34  39 NE3       30.19S
SOMERSET       CLEAR     55  36  47 NE5       30.20S
MIDDLESBORO    PTCLDY    48  43  82 CALM      30.20F
MONTICELLO     CLEAR     50  38  63 CALM      30.20S
$$




USA.gov is the U.S. government's official web portal to all federal, state and local government web resources and services.